Helicity
92 73 17 73 65 -47 69 48 -7 -5 11 -46 -12 -6 22 13 5 41 76 91 240 206 119 153 121 171 205 212 275 325 339 261 269 224 190 136 121 74 46 66 59 43 85 104
88 58 86 3 67 137 89 34 128 32 38 25 -15 53 22 -39 -52 97 68 97 120 164 149 157 152 175 229 264 291 311 260 242 231 188 157 126 103 61 73 68 96 113 96 88
89 45 -9 36 97 120 43 11 114 30 13 42 70 -30 -11 -22 -71 -3 -16 33 54 136 215 217 198 249 292 308 346 343 345 269 230 204 147 98 41 36 23 36 39 63 66 42
0 22 -15 71 120 142 74 35 67 101 92 16 67 -1 49 98 -97 -35 -59 -17 74 88 142 274 225 226 328 318 353 336 294 284 232 243 206 183 146 100 73 69 48 29 34 24
-50 46 14 28 -12 85 9 70 133 67 115 73 77 48 3 3 55 6 -60 -72 35 115 -5 205 253 250 238 274 379 324 271 201 216 224 221 197 127 82 42 37 37 30 18 25
29 -54 -54 69 29 44 88 13 12 -18 104 71 30 61 5 88 47 21 38 131 110 276 160 9 -18 97 106 227 285 332 292 219 201 217 207 203 170 103 57 40 18 19 2 15
35 -41 -57 -9 26 70 76 84 53 61 75 26 43 76 51 45 -19 11 25 147 147 166 209 168 25 -46 58 117 132 248 283 199 192 197 168 173 160 127 92 62 58 2 5 27
48 65 -9 4 44 93 118 73 67 30 24 35 22 42 66 75 -43 86 40 117 126 94 115 142 51 -74 111 113 203 81 96 156 162 174 140 113 109 121 97 96 13 -28 -20 42
29 41 21 -14 26 144 101 120 93 101 105 55 45 77 61 63 168 101 90 66 101 187 107 169 101 -15 -24 89 160 114 181 131 133 133 87 94 67 51 83 161 96 33 -23 74
-9 18 15 10 -31 45 136 178 169 122 64 28 7 45 41 94 132 163 139 15 -19 3 93 43 29 -89 -91 -84 -55 32 161 157 186 117 129 130 100 92 141 147 131 103 82 87
90 66 91 -48 -12 66 113 164 200 157 123 78 76 13 9 56 99 50 212 96 -34 5 -37 -63 -75 -106 -53 -55 92 209 205 210 162 154 151 120 101 112 117 132 120 115 86 56
125 35 51 61 35 6 40 82 281 223 122 131 115 70 2 87 37 -7 3 46 -53 1 -63 28 81 126 143 156 196 192 165 119 112 123 121 96 82 81 73 61 40 34 40 50
94 116 70 63 22 45 32 130 151 186 177 166 222 60 8 -13 -77 -72 -43 72 88 138 168 139 146 178 198 163 142 125 99 75 69 79 87 93 92 81 68 61 50 38 31 41
152 107 40 55 20 31 93 71 59 64 119 135 112 94 74 -47 -68 -57 79 166 169 179 157 141 132 127 106 99 94 91 83 69 60 63 62 82 75 63 61 63 75 78 76 80
122 52 45 5 -42 8 -2 50 34 38 45 131 66 144 69 -42 -27 -36 23 165 163 194 148 124 67 49 48 67 77 69 66 62 57 72 79 80 90 86 93 99 99 109 125 124
157 40 65 14 53 45 36 34 58 22 42 59 128 97 -30 28 -26 -3 71 194 169 150 135 93 69 54 47 74 66 61 77 87 101 109 114 121 125 117 109 122 128 139 137 137
64 38 114 22 46 59 59 41 21 32 -7 86 151 65 140 32 -49 -18 36 140 130 115 114 81 62 39 65 80 90 106 118 129 134 103 119 132 116 120 126 142 153 157 150 145
43 22 53 38 42 72 -1 6 9 27 99 118 252 182 22 -8 -19 26 86 138 119 101 54 78 76 61 93 118 162 185 205 192 152 156 157 147 137 157 169 173 167 160 148 154
43 87 48 100 97 74 52 -45 -25 7 66 150 255 194 169 115 94 35 118 152 127 107 108 128 121 150 198 193 226 238 208 212 188 189 182 170 173 194 184 168 154 143 146 148
-30 51 99 91 84 139 95 -16 69 77 104 100 251 115 108 148 109 53 38 120 145 169 229 265 229 246 262 224 220 220 189 184 169 173 168 174 184 189 178 143 123 118 124 128
36 100 66 102 55 76 85 187 76 59 16 56 100 198 128 110 59 6 -16 202 294 337 387 340 320 311 258 232 238 195 179 164 154 165 178 198 179 156 123 107 94 102 115 126
29 54 107 87 72 84 182 111 58 85 131 -1 55 279 252 262 41 35 192 425 497 504 437 440 424 360 287 263 255 241 230 179 182 188 196 175 145 115 107 87 78 90 98 91
65 24 22 33 30 129 201 221 229 130 88 -25 109 80 67 -100 -144 125 404 523 501 542 522 517 522 422 304 289 278 270 200 212 227 229 185 137 120 107 103 105 96 97 96 84
33 39 52 61 59 73 174 126 125 104 77 -61 28 -6 -111 25 195 335 457 502 518 477 491 481 408 315 266 228 228 207 214 238 245 192 144 121 111 85 66 74 89 85 77 81
74 53 64 65 60 79 52 93 67 106 111 8 -10 -84 1 270 254 396 417 439 427 376 320 298 292 250 203 206 211 206 212 247 224 169 137 121 105 104 102 87 74 106 112 99
57 18 23 4 10 73 115 100 116 143 143 214 294 121 213 287 274 339 360 348 334 299 258 237 209 213 194 201 180 178 187 197 165 150 127 109 105 109 98 94 137 198 72 99
Wind_Speed
51 46 28 29 23 31 25 27 30 22 37 28 36 27 34 40 37 37 25 46 46 43 42 44 49 47 43 41 41 40 39 39 35 33 29 26 24 23 21 24 19 21 19 19
52 54 50 34 18 26 28 25 36 27 26 18 34 31 23 43 39 41 30 29 46 40 39 39 43 44 43 44 45 46 41 37 35 34 30 25 23 24 25 22 23 25 27 24
51 59 40 13 13 19 25 31 28 14 23 32 26 37 26 32 38 46 41 33 41 43 39 38 42 42 44 43 42 40 39 35 36 33 29 26 22 20 20 23 24 24 23 21
49 54 20 14 12 13 15 23 24 23 19 33 29 39 29 30 35 40 51 49 42 45 37 43 43 40 41 43 38 36 34 32 33 31 29 27 26 24 22 20 21 21 20 22
46 49 42 23 13 14 46 47 30 30 23 31 12 38 38 26 27 37 51 47 3 8 57 44 51 42 43 40 37 36 35 29 26 27 27 25 23 22 20 19 19 19 19 17
66 47 45 50 32 18 8 15 43 51 23 25 13 5 45 25 4 39 24 24 13 18 33 44 66 53 46 35 34 31 29 29 25 22 21 20 17 16 20 17 11 11 21 21
70 69 58 58 35 16 25 29 31 32 34 31 25 28 40 43 30 25 34 24 15 19 12 23 55 63 54 16 18 28 32 27 21 23 18 16 13 11 14 4 11 30 20 6
47 64 47 26 7 4 23 27 29 37 38 35 38 36 38 32 16 36 38 33 25 25 18 15 27 39 16 9 3 31 33 24 15 12 16 16 14 8 3 37 58 59 44 4
40 62 56 51 48 27 33 33 23 29 34 38 36 36 36 34 24 26 39 29 16 13 22 33 36 48 53 4 28 19 21 20 8 7 9 14 3 4 29 20 14 9 9 17
44 58 64 64 50 41 11 13 28 37 36 42 36 33 31 18 18 20 31 22 20 16 33 40 39 42 39 17 19 15 13 11 11 15 18 26 32 35 33 23 25 29 33 38
34 40 70 42 41 51 22 21 32 29 28 35 33 38 22 14 12 9 14 17 21 25 36 35 34 35 19 20 22 23 22 19 23 28 30 33 37 38 36 34 35 36 38 39
20 40 55 70 60 45 37 13 21 25 29 36 40 28 15 11 20 16 15 21 26 33 35 26 25 24 26 28 28 26 24 24 27 29 30 33 34 36 37 38 39 38 38 41
32 51 65 69 59 43 43 27 21 32 32 22 40 47 5 7 3 8 14 25 31 36 30 28 28 29 29 28 25 25 25 26 28 30 31 33 34 36 38 39 41 42 40 41
19 35 43 54 55 49 52 47 40 32 32 31 22 22 7 15 11 10 18 29 38 35 33 30 29 27 24 24 25 26 27 28 29 31 33 33 35 36 37 39 40 42 42 42
32 51 53 60 55 54 64 65 62 42 49 28 32 12 12 17 20 12 21 24 27 26 25 24 26 25 24 23 23 26 28 29 29 31 33 34 34 35 37 39 40 41 43 44
39 47 49 66 59 57 59 62 59 52 52 39 27 15 2 4 13 18 27 19 17 15 16 17 17 18 20 20 23 25 25 26 28 30 31 32 33 35 37 39 41 42 44 45
46 46 51 65 57 57 61 57 46 50 59 34 16 5 4 11 17 12 18 19 16 14 8 12 12 15 17 18 20 21 22 24 27 29 30 32 34 37 39 41 43 45 46 47
53 51 43 53 52 67 57 46 50 48 44 37 13 9 16 20 11 18 20 18 17 20 22 13 12 13 15 14 16 19 21 24 25 30 32 34 36 39 40 42 43 45 46 47
41 41 45 41 48 60 68 43 44 47 40 25 2 6 7 6 7 5 21 22 16 20 19 15 12 11 10 12 14 18 20 22 26 28 32 35 37 38 40 43 46 47 49 49
41 42 49 43 46 62 64 61 54 32 39 16 10 22 21 6 8 3 14 8 16 18 16 12 8 9 9 10 13 16 20 22 23 26 31 35 37 38 40 43 45 45 45 45
50 48 48 52 58 47 56 62 56 52 47 8 13 19 15 6 16 28 49 8 12 16 17 16 13 10 9 9 14 17 19 23 25 29 33 37 39 38 38 42 43 43 45 46
46 43 45 46 50 53 54 44 44 50 29 10 13 8 5 4 12 7 13 10 18 20 20 16 14 13 12 12 15 19 23 25 26 30 35 38 40 35 37 41 43 43 45 47
51 43 49 46 44 42 43 38 34 30 23 22 9 11 5 9 12 13 21 19 16 17 16 17 16 16 19 18 18 20 23 27 30 34 37 35 35 37 38 40 44 48 48 42
47 45 49 47 39 41 45 34 31 27 28 28 15 9 13 12 19 28 19 19 16 15 16 17 17 19 20 21 23 25 27 31 33 34 34 36 37 40 38 40 39 43 46 44
48 47 52 58 61 62 38 35 37 33 35 30 16 15 6 18 23 28 30 25 17 15 15 16 16 18 19 22 25 27 31 34 34 35 36 38 39 42 45 46 46 49 50 47
45 48 49 53 45 47 60 53 47 38 22 26 24 29 8 20 26 24 16 14 15 14 14 15 18 19 21 24 26 30 33 34 32 33 36 38 40 42 44 46 47 54 44 46
Wind_Direction
248 261 191 184 117 230 66 76 318 263 140 117 161 139 178 221 184 166 125 171 163 161 162 159 162 157 153 153 151 153 157 164 158 158 153 155 161 163 152 167 162 168 157 153
247 238 198 299 34 24 21 32 231 307 91 316 189 181 182 220 200 177 155 154 174 165 162 157 158 159 155 154 157 162 163 162 165 166 163 153 154 164 168 160 157 157 165 164
251 221 280 11 4 12 41 12 209 280 86 302 302 208 196 207 202 234 183 169 172 171 162 155 157 155 156 160 158 159 159 160 164 163 156 154 146 149 141 164 173 171 165 166
254 244 307 104 352 338 22 146 125 70 22 332 299 297 199 196 216 207 214 201 177 177 165 164 162 160 162 167 162 161 156 154 158 156 159 161 163 168 164 159 163 168 159 168
250 256 274 331 345 70 279 214 192 353 353 337 352 313 245 171 195 212 213 208 99 281 216 176 173 170 173 170 165 165 165 158 149 152 159 162 168 170 168 167 168 168 170 162
243 271 285 242 299 330 78 94 294 289 343 348 356 68 318 7 324 327 359 328 310 312 288 257 211 198 186 172 170 166 166 170 163 156 157 163 166 163 175 173 144 153 187 190
243 248 267 270 299 325 305 321 321 313 317 330 342 335 327 323 7 29 10 298 347 15 347 312 235 208 214 169 184 179 173 175 173 178 176 178 179 174 185 153 9 208 196 88
263 253 269 300 334 293 304 320 318 299 301 324 337 319 328 350 75 350 302 243 346 353 75 52 164 180 171 128 83 183 185 175 174 181 199 188 191 198 303 334 303 274 243 315
268 255 253 261 270 288 292 301 318 316 316 321 330 324 340 340 45 1 350 4 49 76 136 162 173 186 194 138 341 161 163 178 158 183 230 330 228 347 349 18 78 149 223 14
267 259 245 246 288 297 252 308 300 299 310 306 325 315 318 35 63 40 355 65 79 94 163 171 168 182 181 311 12 89 100 120 39 8 359 350 351 351 3 22 17 10 3 359
269 269 233 281 285 278 287 287 298 308 312 308 319 311 355 129 114 100 64 63 112 117 141 142 149 161 110 64 81 73 82 38 18 8 360 352 353 356 358 5 12 10 8 6
251 268 263 245 262 293 303 238 272 298 302 304 305 323 16 121 153 151 99 69 121 128 130 108 99 85 84 84 80 70 44 34 20 17 11 2 7 9 9 9 13 13 13 11
270 261 261 260 268 288 299 309 274 292 297 300 296 300 11 95 59 119 63 93 112 112 103 95 90 92 93 87 64 47 53 53 51 38 30 25 22 21 18 17 17 19 22 23
271 273 273 265 263 283 285 285 300 306 293 299 302 324 354 172 156 94 105 114 123 117 114 108 103 101 87 72 63 64 65 60 53 43 35 32 24 25 23 20 17 16 16 15
275 278 268 261 270 282 275 276 274 298 298 288 302 306 191 167 142 114 116 111 119 115 112 108 106 91 76 55 56 59 62 57 51 42 37 30 28 25 20 16 14 12 10 8
275 278 274 259 267 278 279 274 276 284 296 302 297 314 205 115 121 124 138 123 118 117 112 104 84 67 53 58 65 63 57 51 42 37 32 28 21 16 12 9 5 3 1 1
281 281 280 260 266 277 276 271 291 286 288 306 305 316 118 135 134 120 133 130 121 119 104 98 71 57 73 83 75 61 57 42 30 28 23 17 13 6 2 359 356 353 352 352
277 275 284 269 267 268 269 286 292 303 303 302 310 146 146 144 119 113 123 129 125 129 131 103 80 79 81 63 62 53 48 34 30 14 9 6 3 360 359 356 355 353 351 349
288 283 280 278 275 273 261 285 300 303 309 311 103 138 147 149 344 358 133 135 128 134 131 119 108 87 63 72 60 38 33 34 22 15 7 4 2 360 357 353 350 348 346 345
294 288 273 279 277 273 267 274 287 304 298 309 148 144 129 107 334 118 150 132 122 131 125 102 60 60 69 66 36 18 21 23 24 16 8 2 0 358 355 352 351 351 351 350
280 280 274 273 269 284 290 277 279 280 292 277 172 147 126 101 19 335 222 107 118 113 98 89 75 84 74 42 27 20 18 6 13 11 6 0 357 356 357 354 353 353 352 350
277 279 277 277 276 275 300 295 287 287 281 192 203 170 302 347 331 323 138 117 107 103 91 77 71 64 59 48 35 25 8 12 10 4 359 358 358 3 360 357 354 353 352 349
274 279 275 276 284 292 297 301 303 298 271 260 216 154 68 87 350 113 130 130 120 107 87 74 63 49 25 23 26 18 12 7 1 357 356 358 0 359 357 355 352 348 348 349
288 288 284 283 289 291 294 306 313 299 286 261 241 185 143 60 109 117 119 126 124 101 83 84 56 34 33 33 23 15 8 2 359 358 359 359 357 353 352 351 350 346 345 344
286 292 285 281 278 278 287 299 303 291 289 276 219 191 156 110 121 121 120 122 103 88 76 69 43 39 35 28 18 11 4 2 1 359 358 357 358 355 353 353 353 349 348 346
287 287 292 290 294 289 280 283 283 281 273 279 285 263 134 128 123 120 102 99 101 92 66 48 47 43 25 17 13 6 3 4 3 2 360 358 358 358 357 354 354 357 7 7